Weather History for Orangeburg, SC

Change the Weather History Date:

Tuesday, December 18, 2012

  Actual Average Record
Temperature  
Mean Temperature 53 °F 47 °F  
Max Temperature 65 °F 58 °F 80 °F (2008)
Min Temperature 40 °F 36 °F 17 °F (1953)
Degree Days  
Heating Degree Days 12 18  
Month to date heating degree days 139 289  
Since 1 July heating degree days 589 658  
Cooling Degree Days 0 0  
Month to date cooling degree days 2 0  
Year to date cooling degree days 2322 2102  
Growing Degree Days 3 (Base 50)    
Moisture  
Dew Point 47 °F    
Average Humidity 73    
Maximum Humidity 93    
Minimum Humidity 31    
Precipitation  
Precipitation 0.00 in 0.12 in 1.39 in (1959)
Month to date precipitation 1.55 2.03  
Year to date precipitation 39.85 45.44  
Sea Level Pressure  
Sea Level Pressure 29.83 in    
Wind  
Wind Speed 9 mph (WSW)    
Max Wind Speed 23 mph    
Max Gust Speed 35 mph    
Visibility 10 miles    
Events      
T = Trace of Precipitation, MM = Missing Value Source: NWS Daily Summary

Daily Weather History Graph

Daily Weather History Graph

Search for Another Location

Airport:

Trip Planner

Search our weather history database for the weather conditions in past years. The results will help you decide how hot, cold, wet, or windy it might be!

Date:

Astronomy

Dec. 18, 2012 Rise Set
Actual Time 7:22 AM EST 5:18 PM EST
Civil Twilight 6:54 AM EST 5:46 PM EST
Nautical Twilight 6:23 AM EST 6:17 PM EST
Astronomical Twilight 5:53 AM EST 6:47 PM EST
Moon 11:16 AM EST (12/18) 11:25 PM EST (12/18)
Length of Visible Light 10h 51m
Length of Day
9h 56m
Waxing Crescent, 34% of the Moon is Illuminated
Dec 18
Waxing Crescent
Dec 20
First Quarter
Dec 28
Full
Jan 4
Last Quarter
Jan 11
New

Hourly Weather History & Observations

Time (EST) Temp. Dew Point Humidity Pressure Visibility Wind Dir Wind Speed Gust Speed Precip Events Conditions
12:48 AM 60.8 °F 57.2 °F 88% 29.76 in 10.0 mi SW 8.1 mph - N/A   Overcast
12:53 AM 60.1 °F 57.0 °F 90% 29.76 in 10.0 mi SW 8.1 mph - N/A   Overcast
1:08 AM 60.8 °F 57.2 °F 88% 29.76 in 10.0 mi SW 8.1 mph - N/A   Mostly Cloudy
1:53 AM 61.0 °F 55.9 °F 83% 29.76 in 10.0 mi West 8.1 mph - N/A   Overcast
2:10 AM 60.8 °F 55.4 °F 82% 29.77 in 10.0 mi West 8.1 mph - N/A   Overcast
2:51 AM 59.0 °F 55.4 °F 88% 29.76 in 10.0 mi SSW 4.6 mph - N/A   Mostly Cloudy
2:53 AM 59.0 °F 55.0 °F 87% 29.76 in 10.0 mi SW 4.6 mph - N/A   Mostly Cloudy
3:10 AM 57.2 °F 55.4 °F 94% 29.77 in 10.0 mi WSW 3.5 mph - N/A   Mostly Cloudy
3:28 AM 57.2 °F 55.4 °F 94% 29.76 in 10.0 mi SW 5.8 mph - N/A   Mostly Cloudy
3:53 AM 57.9 °F 55.0 °F 90% 29.76 in 10.0 mi WSW 6.9 mph - N/A   Mostly Cloudy
4:22 AM 57.2 °F 55.4 °F 94% 29.76 in 10.0 mi SW 6.9 mph - N/A   Scattered Clouds
4:53 AM 57.9 °F 55.0 °F 90% 29.76 in 10.0 mi West 5.8 mph - N/A   Mostly Cloudy
5:53 AM 57.9 °F 55.0 °F 90% 29.77 in 10.0 mi WSW 8.1 mph - N/A   Mostly Cloudy
6:00 AM 57.2 °F 55.4 °F 94% 29.77 in 10.0 mi WSW 11.5 mph - N/A   Overcast
6:25 AM 57.2 °F 55.4 °F 94% 29.78 in 10.0 mi WSW 9.2 mph - N/A   Mostly Cloudy
6:53 AM 57.9 °F 55.0 °F 90% 29.79 in 10.0 mi WSW 13.8 mph - N/A   Overcast
7:11 AM 57.2 °F 53.6 °F 88% 29.80 in 10.0 mi WSW 11.5 mph - N/A   Overcast
7:19 AM 57.2 °F 53.6 °F 88% 29.80 in 10.0 mi WSW 10.4 mph - N/A   Overcast
7:31 AM 57.2 °F 53.6 °F 88% 29.80 in 10.0 mi WSW 8.1 mph - N/A   Overcast
7:53 AM 57.9 °F 54.0 °F 87% 29.81 in 10.0 mi West 10.4 mph - N/A   Overcast
8:44 AM 59.0 °F 53.6 °F 82% 29.81 in 10.0 mi WSW 11.5 mph - N/A   Scattered Clouds
8:53 AM 59.0 °F 54.0 °F 83% 29.81 in 10.0 mi WSW 11.5 mph 18.4 mph N/A   Clear
9:53 AM 61.0 °F 50.0 °F 67% 29.82 in 10.0 mi West 16.1 mph 24.2 mph N/A   Partly Cloudy
10:53 AM 63.0 °F 48.0 °F 58% 29.82 in 10.0 mi WSW 15.0 mph 21.9 mph N/A   Partly Cloudy
11:53 AM 64.0 °F 39.9 °F 41% 29.82 in 10.0 mi West 17.3 mph 25.3 mph N/A   Clear
12:53 PM 64.0 °F 33.1 °F 31% 29.82 in 10.0 mi West 19.6 mph 28.8 mph N/A   Clear
1:53 PM 64.9 °F 35.1 °F 33% 29.82 in 10.0 mi West 17.3 mph - N/A   Clear
2:53 PM 64.0 °F 34.0 °F 33% 29.85 in 10.0 mi WNW 20.7 mph 27.6 mph N/A   Clear
3:53 PM 63.0 °F 32.0 °F 31% 29.87 in 10.0 mi WNW 12.7 mph 24.2 mph N/A   Clear
4:53 PM 61.0 °F 30.9 °F 32% 29.91 in 10.0 mi WNW 8.1 mph 18.4 mph N/A   Clear
5:53 PM 55.0 °F 33.1 °F 43% 29.94 in 10.0 mi WSW 5.8 mph - N/A   Clear
6:53 PM 53.1 °F 33.1 °F 47% 29.95 in 10.0 mi West 5.8 mph - N/A   Clear
7:53 PM 48.9 °F 34.0 °F 56% 29.96 in 10.0 mi Calm Calm - N/A   Clear
8:53 PM 46.0 °F 35.1 °F 66% 29.98 in 10.0 mi Calm Calm - N/A   Clear
9:53 PM 43.0 °F 36.0 °F 76% 30.00 in 10.0 mi Calm Calm - N/A   Clear
10:53 PM 42.1 °F 35.1 °F 76% 30.00 in 10.0 mi Calm Calm - N/A   Clear
11:53 PM 41.0 °F 34.0 °F 76% 30.01 in 10.0 mi Calm Calm - N/A   Clear